Location: Follega
(52.8850°N, 5.7362°E)
Time: 22:37:49
(UTC+00:00)

ERS-1 Rocket - Visible Passes

Search period start: 01 October 2020 00:00
Search period end: 11 October 2020 00:00
Orbit: 754 x 757 km, 98.5° (Epoch: 01 October)

Date Brightness Start Highest point End Pass type
(mag) Time Alt. Az. Time Alt. Az. Time Alt. Az.
01 Oct 4.9 18:57:57 12° NE 18:58:33 13° NE 19:00:42 10° NNE visible
01 Oct 4.0 20:37:58 39° NNE 20:37:58 39° NNE 20:41:19 10° N visible
01 Oct 5.4 22:17:58 18° NW 22:17:58 18° NW 22:19:42 10° NW visible
02 Oct 4.2 19:58:00 28° NE 19:58:00 28° NE 20:01:21 10° N visible
02 Oct 4.8 21:38:00 28° NW 21:38:00 28° NW 21:40:32 10° NNW visible
03 Oct 4.7 19:18:02 17° NE 19:18:02 17° NE 19:21:01 10° NNE visible
03 Oct 4.3 20:58:03 36° N 20:58:03 36° N 21:00:59 10° NNW visible
03 Oct 5.7 22:38:02 13° NW 22:38:02 13° NW 22:38:48 10° NW visible
04 Oct 4.2 20:18:05 31° NNE 20:18:05 31° NNE 20:21:10 10° N visible
04 Oct 5.2 21:58:05 21° NW 21:58:05 21° NW 21:59:59 10° NNW visible
05 Oct 4.6 19:38:07 21° NE 19:38:07 21° NE 19:41:03 10° N visible
05 Oct 4.7 21:18:08 29° NNW 21:18:08 29° NNW 21:20:36 10° NNW visible
06 Oct 5.0 18:58:10 13° NE 18:58:10 13° NE 19:00:17 10° NNE visible
06 Oct 4.4 20:38:10 31° N 20:38:10 31° N 20:40:55 10° N visible
06 Oct 5.6 22:18:09 15° NW 22:18:09 15° NW 22:19:18 10° NW visible
07 Oct 4.5 19:58:12 25° NNE 19:58:12 25° NNE 20:00:57 10° N visible
07 Oct 5.1 21:38:13 23° NNW 21:38:13 23° NNW 21:40:09 10° NNW visible
08 Oct 4.8 19:18:14 16° NE 19:18:14 16° NE 19:20:36 10° NNE visible
08 Oct 4.7 20:58:15 28° N 20:58:15 28° N 21:00:36 10° NNW visible
08 Oct 5.9 22:38:14 11° NW 22:38:14 11° NW 22:38:24 10° NW visible
09 Oct 4.5 20:18:16 26° NNE 20:18:16 26° NNE 20:20:46 10° N visible
09 Oct 5.5 21:58:16 17° NW 21:58:16 17° NW 21:59:35 10° NNW visible
10 Oct 4.7 19:38:19 19° NNE 19:38:19 19° NNE 19:40:38 10° N visible
10 Oct 5.1 21:18:19 23° NNW 21:18:19 23° NNW 21:20:12 10° NNW visible
